Long Prairie, MN

1:35 PM CDT on September 26, 2017 (GMT -0500)
Long Prairie

Weather History for K14Y - May, 2013

Change the Weather History Date:

Tuesday, May 21, 2013

  Actual Average (KLXL) Record (KLXL)
Temperature  
Mean Temperature 47 °F -  
Max Temperature 50 °F 75 °F 93 °F (1964)
Min Temperature 44 °F 44 °F 30 °F (1979)
Degree Days  
Heating Degree Days 18    
Moisture  
Dew Point 46 °F    
Average Humidity 96    
Maximum Humidity 100    
Minimum Humidity 87    
Precipitation  
Precipitation 0.30 in - - ()
Sea Level Pressure  
Sea Level Pressure 29.65 in    
Wind  
Wind Speed 10 mph (NNE)    
Max Wind Speed 14 mph    
Max Gust Speed 22 mph    
Visibility 8 miles    
Events Rain    
Averages and records for this station are not official NWS values.
T = Trace of Precipitation, MM = Missing Value Source: NWS Daily Summary

Daily Weather History Graph

Daily Weather History Graph

Search for Another Location

Airport or City:

Trip Planner

Search our weather history database for the weather conditions in past years. The results will help you decide how hot, cold, wet, or windy it might be!

Date:

Astronomy

May. 21, 2013 Rise Set
Actual Time 5:40 AM CDT 8:51 PM CDT
Civil Twilight 5:05 AM CDT 9:27 PM CDT
Nautical Twilight 4:18 AM CDT 10:14 PM CDT
Astronomical Twilight 3:21 AM CDT 11:12 PM CDT
Moon 4:55 PM CDT (5/21) 3:22 AM CDT (5/21)
Length of Visible Light 16h 22m
Length of Day
15h 10m
Waxing Gibbous, 84% of the Moon is Illuminated
May 21
Waxing Gibbous
May 24
Full
May 31
Last Quarter
Jun 8
New
Jun 16
First Quarter

Hourly Weather History & Observations

Time (CDT) Temp. Windchill Dew Point Humidity Pressure Visibility Wind Dir Wind Speed Gust Speed Precip Events Conditions
12:13 AM 48.2 °F - 48.2 °F 100% 29.56 in 4.0 mi NE 10.4 mph 17.3 mph N/A   Overcast
12:33 AM 48.2 °F - 48.2 °F 100% 29.56 in 5.0 mi NE 9.2 mph - N/A   Overcast
12:53 AM 48.2 °F - 48.2 °F 100% 29.56 in 7.0 mi NNE 10.4 mph - N/A   Overcast
1:11 AM 48.2 °F - 46.4 °F 93% 29.56 in 10.0 mi NE 12.7 mph - N/A   Overcast
1:25 AM 48.2 °F - 48.2 °F 100% 29.56 in 10.0 mi NE 10.4 mph - N/A   Overcast
1:45 AM 48.2 °F - 48.2 °F 100% 29.56 in 10.0 mi NNE 6.9 mph - N/A   Overcast
2:05 AM 48.2 °F - 48.2 °F 100% 29.56 in 10.0 mi NNE 8.1 mph - N/A   Overcast
2:25 AM 48.2 °F - 46.4 °F 93% 29.56 in 10.0 mi NNE 8.1 mph - N/A   Overcast
2:45 AM 48.2 °F - 46.4 °F 93% 29.55 in 10.0 mi NNE 8.1 mph 16.1 mph N/A   Overcast
3:05 AM 48.2 °F - 46.4 °F 93% 29.55 in 10.0 mi NNE 8.1 mph - N/A   Overcast
3:25 AM 46.4 °F 41.5 °F 46.4 °F 100% 29.55 in 10.0 mi NNE 10.4 mph - N/A   Overcast
3:45 AM 46.4 °F 42.4 °F 46.4 °F 100% 29.56 in 10.0 mi NNE 8.1 mph - N/A   Overcast
4:05 AM 46.4 °F 41.5 °F 46.4 °F 100% 29.56 in 10.0 mi NE 10.4 mph - N/A   Overcast
4:25 AM 46.4 °F 41.9 °F 46.4 °F 100% 29.56 in 10.0 mi NNE 9.2 mph - N/A   Overcast
4:50 AM 44.6 °F 38.4 °F 44.6 °F 100% 29.57 in 10.0 mi NE 12.7 mph 16.1 mph N/A   Overcast
4:53 AM 44.6 °F 38.8 °F 44.6 °F 100% 29.56 in 10.0 mi NE 11.5 mph 16.1 mph N/A   Overcast
5:13 AM 44.6 °F 39.2 °F 44.6 °F 100% 29.57 in 10.0 mi NNE 10.4 mph - N/A   Overcast
5:34 AM 44.6 °F 39.2 °F 44.6 °F 100% 29.57 in 10.0 mi NNE 10.4 mph 17.3 mph N/A   Overcast
5:54 AM 44.6 °F 40.2 °F 44.6 °F 100% 29.57 in 10.0 mi NNE 8.1 mph - N/A   Overcast
6:14 AM 44.6 °F 40.2 °F 44.6 °F 100% 29.57 in 10.0 mi NNE 8.1 mph - N/A   Overcast
6:34 AM 44.6 °F 39.2 °F 44.6 °F 100% 29.58 in 10.0 mi NNE 10.4 mph 17.3 mph N/A   Overcast
6:53 AM 44.6 °F 38.8 °F 44.6 °F 100% 29.58 in 10.0 mi NE 11.5 mph 17.3 mph N/A   Overcast
7:13 AM 44.6 °F 39.2 °F 44.6 °F 100% 29.59 in 10.0 mi NNE 10.4 mph 16.1 mph N/A   Overcast
7:33 AM 44.6 °F 40.2 °F 44.6 °F 100% 29.59 in 10.0 mi NNE 8.1 mph 16.1 mph N/A   Overcast
7:53 AM 44.6 °F 39.7 °F 44.6 °F 100% 29.60 in 10.0 mi NNE 9.2 mph 20.7 mph N/A   Overcast
8:14 AM 44.6 °F 38.8 °F 44.6 °F 100% 29.61 in 10.0 mi NE 11.5 mph - N/A   Overcast
8:34 AM 44.6 °F 38.8 °F 42.8 °F 93% 29.61 in 10.0 mi NE 11.5 mph 16.1 mph N/A   Overcast
8:54 AM 44.6 °F 38.4 °F 44.6 °F 100% 29.61 in 10.0 mi NE 12.7 mph 19.6 mph N/A   Overcast
9:13 AM 44.6 °F 38.1 °F 44.6 °F 100% 29.62 in 5.0 mi NE 13.8 mph 17.3 mph N/A   Drizzle
9:33 AM 44.6 °F 38.8 °F 44.6 °F 100% 29.62 in 10.0 mi NNE 11.5 mph 20.7 mph 0.01 in   Overcast
9:54 AM 44.6 °F 38.4 °F 44.6 °F 100% 29.62 in 10.0 mi NNE 12.7 mph 21.9 mph 0.01 in Rain Rain
10:14 AM 46.4 °F 41.5 °F 44.6 °F 93% 29.62 in 10.0 mi North 10.4 mph 17.3 mph N/A   Overcast
10:34 AM 46.4 °F 40.7 °F 44.6 °F 93% 29.63 in 10.0 mi NNE 12.7 mph 17.3 mph N/A   Overcast
10:54 AM 46.4 °F 41.9 °F 44.6 °F 93% 29.63 in 10.0 mi NNE 9.2 mph 19.6 mph N/A   Overcast
11:14 AM 46.4 °F 40.7 °F 44.6 °F 93% 29.63 in 10.0 mi NNE 12.7 mph 18.4 mph N/A   Overcast
11:34 AM 46.4 °F 41.9 °F 44.6 °F 93% 29.63 in 10.0 mi NNE 9.2 mph - N/A   Overcast
11:54 AM 46.4 °F 41.1 °F 44.6 °F 93% 29.64 in 10.0 mi NNE 11.5 mph 17.3 mph N/A   Overcast
12:13 PM 48.2 °F - 46.4 °F 93% 29.64 in 10.0 mi NNE 10.4 mph 16.1 mph N/A   Overcast
12:33 PM 48.2 °F - 46.4 °F 93% 29.64 in 10.0 mi NNE 12.7 mph 17.3 mph N/A   Overcast
12:53 PM 50.0 °F - 46.4 °F 87% 29.64 in 10.0 mi NNE 11.5 mph 19.6 mph N/A   Overcast
1:14 PM 50.0 °F - 46.4 °F 87% 29.65 in 10.0 mi NNE 9.2 mph 18.4 mph N/A   Overcast
1:34 PM 50.0 °F - 46.4 °F 87% 29.65 in 10.0 mi NNE 8.1 mph - N/A   Drizzle
1:54 PM 50.0 °F - 46.4 °F 87% 29.66 in 10.0 mi NNE 9.2 mph - N/A   Light Drizzle
2:14 PM 50.0 °F - 46.4 °F 87% 29.66 in 10.0 mi NNE 11.5 mph 17.3 mph N/A Rain Rain
2:34 PM 50.0 °F - 46.4 °F 87% 29.66 in 10.0 mi NNE 11.5 mph - N/A   Drizzle
2:53 PM 50.0 °F - 46.4 °F 87% 29.66 in 10.0 mi NNE 10.4 mph - N/A   Drizzle
3:13 PM 50.0 °F - 46.4 °F 87% 29.67 in 10.0 mi NNE 9.2 mph 16.1 mph 0.01 in Rain Light Rain
3:34 PM 50.0 °F - 46.4 °F 87% 29.67 in 10.0 mi NNE 11.5 mph 16.1 mph 0.02 in Rain Light Rain
3:54 PM 50.0 °F - 48.2 °F 94% 29.68 in 10.0 mi NNE 8.1 mph - 0.04 in Rain Light Rain
4:14 PM 50.0 °F - 48.2 °F 94% 29.68 in 10.0 mi NNE 8.1 mph - 0.01 in Rain Light Rain
4:34 PM 50.0 °F - 48.2 °F 94% 29.69 in 5.0 mi NNE 9.2 mph - 0.04 in Rain Rain
4:54 PM 50.0 °F - 48.2 °F 94% 29.70 in 4.0 mi NE 9.2 mph - 0.09 in Rain Rain
5:13 PM 50.0 °F - 46.4 °F 87% 29.71 in 7.0 mi NE 9.2 mph - 0.01 in Rain Light Rain
5:34 PM 48.2 °F - 46.4 °F 93% 29.71 in 7.0 mi NE 9.2 mph - 0.04 in Rain Rain
5:54 PM 48.2 °F - 46.4 °F 93% 29.72 in 10.0 mi ENE 8.1 mph - 0.06 in Rain Light Rain
6:14 PM 48.2 °F - 46.4 °F 93% 29.72 in 10.0 mi NE 6.9 mph - 0.01 in Rain Rain
6:34 PM 48.2 °F - 46.4 °F 93% 29.72 in 10.0 mi NE 9.2 mph - 0.02 in Rain Light Rain
6:53 PM 46.4 °F 41.9 °F 46.4 °F 100% 29.72 in 10.0 mi NE 9.2 mph - 0.03 in Rain Rain
7:13 PM 46.4 °F 41.1 °F 46.4 °F 100% 29.72 in 10.0 mi NE 11.5 mph - N/A Rain Rain
7:34 PM 46.4 °F 41.9 °F 46.4 °F 100% 29.72 in 10.0 mi NNE 9.2 mph - N/A   Light Drizzle
7:54 PM 46.4 °F 41.5 °F 46.4 °F 100% 29.72 in 5.0 mi NNE 10.4 mph - N/A   Overcast
8:14 PM 46.4 °F 42.4 °F 46.4 °F 100% 29.72 in 4.0 mi NNE 8.1 mph - N/A   Overcast
8:34 PM 46.4 °F 41.9 °F 46.4 °F 100% 29.72 in 2.0 mi NNE 9.2 mph 16.1 mph N/A   Light Drizzle
8:54 PM 46.4 °F 43.5 °F 46.4 °F 100% 29.74 in 3.0 mi NNE 5.8 mph - 0.01 in   Drizzle
9:14 PM 46.4 °F 40.7 °F 46.4 °F 100% 29.75 in 3.0 mi North 12.7 mph 18.4 mph N/A   Drizzle
9:34 PM 46.4 °F 41.1 °F 46.4 °F 100% 29.75 in 4.0 mi NNE 11.5 mph - 0.01 in   Drizzle
9:54 PM 46.4 °F 41.1 °F 46.4 °F 100% 29.76 in 3.0 mi NNE 11.5 mph 16.1 mph 0.01 in Rain Rain
10:14 PM 46.4 °F 40.7 °F 44.6 °F 93% 29.77 in 4.0 mi NNE 12.7 mph 16.1 mph N/A   Drizzle
10:34 PM 46.4 °F 44.3 °F 44.6 °F 93% 29.78 in 4.0 mi NNE 4.6 mph - 0.01 in   Drizzle
10:54 PM 46.4 °F 41.1 °F 44.6 °F 93% 29.78 in 4.0 mi NNE 11.5 mph 18.4 mph 0.01 in   Drizzle
11:13 PM 44.6 °F 40.2 °F 44.6 °F 100% 29.78 in 3.0 mi NNE 8.1 mph - N/A Rain Light Rain
11:34 PM 44.6 °F 40.7 °F 44.6 °F 100% 29.78 in 2.5 mi NE 6.9 mph - 0.02 in Rain Light Rain
11:53 PM 44.6 °F 40.7 °F 44.6 °F 100% 29.78 in 4.0 mi NNE 6.9 mph - 0.04 in Rain Light Rain